This demonstration page uses our WeatherBlox Daily Observations layout. Learn more.

41.55636, -103.73856

Hourly Observations for January 21, 2020

Temp ( °F °C ) Dew Point ( °F °C ) Humidity (%) Winds ( mph kmh ) Pressure ( in mb ) Visibility ( mi km ) Precip ( " mm )
12:58 am 00:58 Mostly Cloudy 39 4.1 12 -10.9 33 33 S 15 24 30.37 1028 10 16.0934 0 0
1:58 am 01:58 Partly Cloudy 39 3.8 11 -11.7 32 32 S 17 28 30.33 1027 10 16.0934 0 0
2:58 am 02:58 Clear 35 1.7 11 -11.4 37 37 S 13 20 30.35 1028 10 16.0934 0 0
3:58 am 03:58 Mostly Clear 38 3.1 15 -9.3 40 40 S 31 50 30.27 1025 10 16.0934 0 0
4:58 am 04:58 Mostly Cloudy 35 1.9 17 -8.4 47 47 SSW 17 28 30.24 1024 10 16.0934 0 0
5:58 am 05:58 Mostly Cloudy 33 0.8 17 -8.5 50 50 E 5 7 30.21 1023 10 16.0934 0 0
6:58 am 06:58 Mostly Cloudy 33 0.5 16 -8.7 51 51 S 7 11 30.18 1022 10 16.0934 0 0
7:58 am 07:58 Partly Cloudy 32 0 16 -8.7 52 52 WSW 12 19 30.17 1022 10 16.0934 0 0
8:58 am 08:58 Mostly Clear 34 1.3 16 -9 47 47 WSW 6 9 30.14 1021 10 16.0934 0 0
9:58 am 09:58 Mostly Cloudy 32 -0.2 17 -8.4 54 54 SW 5 7 30.12 1020 10 16.0934 0 0
10:58 am 10:58 Mostly Cloudy 29 -1.4 17 -8.2 60 60 Calm 30.1 1019 10 16.0934 0 0
11:58 am 11:58 Mostly Cloudy 31 -0.6 18 -7.8 59 59 SW 9 15 30.1 1019 10 16.0934 0 0
12:58 pm 12:58 Mostly Clear 31 -0.8 17 -8.2 58 58 SW 8 13 30.08 1019 10 16.0934 0 0
1:58 pm 13:58 Cloudy 31 -0.5 19 -7.5 60 60 Calm 30.07 1018 10 16.0934 0 0
2:58 pm 14:58 Partly Cloudy 31 -0.6 20 -6.9 63 63 SSW 5 7 30.06 1018 10 16.0934 0 0
3:56 pm 15:56 Mostly Cloudy 40 4.2 20 -6.5 46 46 S 5 7 29.99 1016 10 16.0934 0 0
4:56 pm 16:56 Mostly Cloudy 37 2.7 21 -6.1 53 53 S 3 6 30.03 1017 10 16.0934 0 0
5:56 pm 17:56 Partly Cloudy 49 9.6 26 -3.6 40 40 SSW 9 15 29.96 1015 10 16.0934 0 0
6:56 pm 18:56 Sunny 53 11.5 26 -3.5 35 35 W 6 9 29.91 1013 10 16.0934 0 0
7:56 pm 19:56 Mostly Sunny 52 11.1 25 -3.7 36 36 Calm 29.88 1012 10 16.0934 0 0
8:56 pm 20:56 Partly Cloudy 53 11.8 26 -3.6 34 34 W 10 17 29.83 1010 10 16.0934 0 0
9:56 pm 21:56 Mostly Cloudy 53 11.9 26 -3.4 34 34 W 9 15 29.82 1010 10 16.0934 0 0
10:56 pm 22:56 Cloudy 52 11.3 26 -3.6 35 35 NW 8 13 29.83 1010 10 16.0934 0 0
11:56 pm 23:56 Mostly Cloudy 44 6.8 26 -3.5 48 48 E 8 13 29.86 1011 10 16.0934 0 0

Powered by AerisWeather